DW8618 Nerja ES current weather conditions

sailwx.info

Wind from 005

Air temperature 20.0° C
Dewpoint 16.0° C

Last reported at 2017-Oct-17 07:01 UTC.
Time now 2017-Oct-17 07:55 UTC

Location: N 36°46' W 003°52'.
View on Google Maps.

See reports from other nearby stations

  
Tides and Currents Weather Stations Pressure Air Temp Water Temp Dewpoint Dewpoint Depression Visibility Wind Speed Wind Dir Waves Ship Positions
date/time (UTC)wind fromknots sea level pressurealtimeterstation pressurevisibilityair tempwater tempwave heightnotes
2017-Oct-17 07:01 005 20.0
2017-Oct-17 06:45 005 19.4
2017-Oct-17 06:30 360 18.9
2017-Oct-17 06:16 360 18.9
2017-Oct-17 06:01 009 18.9
2017-Oct-17 05:46 009 18.9
2017-Oct-17 05:30 360 18.9
2017-Oct-17 05:16 360 18.9
2017-Oct-17 05:01 360 18.9
2017-Oct-17 04:45 360 0 gusting 4 18.9
2017-Oct-17 04:30 360 18.9
2017-Oct-17 04:16 360 0 gusting 4 18.9
2017-Oct-17 04:01 355 1 gusting 5 18.9
2017-Oct-17 03:45 005 0 gusting 4 18.3
2017-Oct-17 03:30 355 18.3
2017-Oct-17 03:15 351 2 gusting 4 18.3
2017-Oct-17 03:01 355 18.3
2017-Oct-17 02:45 360 18.3
2017-Oct-17 02:30 360 18.3
2017-Oct-17 02:15 355 0 gusting 4 18.3
2017-Oct-17 02:01 332 1 gusting 5 18.3
2017-Oct-17 01:45 355 1 gusting 3 18.9
2017-Oct-17 01:30 360 18.9
2017-Oct-17 01:16 339 0 gusting 4 18.9
2017-Oct-17 01:01 339 0 gusting 6 18.9
2017-Oct-17 00:45 355 0 gusting 6 18.9
2017-Oct-17 00:30 360 0 gusting 4 18.9
2017-Oct-17 00:15 360 18.9
2017-Oct-17 00:01 360 18.9
2017-Oct-16 23:45 360 18.9
2017-Oct-16 23:30 360 0 gusting 4 18.9
2017-Oct-16 23:16 009 18.9
2017-Oct-16 23:01 009 0 gusting 4 18.9
2017-Oct-16 22:46 009 18.9
2017-Oct-16 22:30 009 18.9
2017-Oct-16 22:15 335 18.9
2017-Oct-16 22:01 335 19.4
2017-Oct-16 21:45 333 19.4
2017-Oct-16 21:31 333 19.4
2017-Oct-16 21:15 327 19.4
2017-Oct-16 21:01 327 19.4
2017-Oct-16 20:46 327 19.4
2017-Oct-16 20:31 327 19.4
2017-Oct-16 20:15 327 19.4
2017-Oct-16 20:01 321 20.0
2017-Oct-16 19:46 320 20.0
2017-Oct-16 19:31 250 20.6
2017-Oct-16 19:16 250 20.6
2017-Oct-16 19:01 239 20.6
2017-Oct-16 18:45 234 21.1
2017-Oct-16 18:30 145 21.1
2017-Oct-16 18:16 145 21.1
2017-Oct-16 18:01 145 21.1
2017-Oct-16 17:45 145 21.1
2017-Oct-16 17:30 145 21.7
2017-Oct-16 17:16 142 21.7
2017-Oct-16 17:01 142 21.7
2017-Oct-16 16:45 130 21.7
2017-Oct-16 16:30 167 1 gusting 4 21.7
2017-Oct-16 16:16 176 2 gusting 4 22.2
2017-Oct-16 16:01 161 22.2
2017-Oct-16 15:45 182 1 gusting 4 22.2
2017-Oct-16 15:30 172 1 gusting 4 22.2
2017-Oct-16 15:15 140 2 gusting 6 22.2
2017-Oct-16 15:01 194 2 gusting 6 22.8
2017-Oct-16 14:45 184 3 gusting 6 22.8
2017-Oct-16 14:30 157 3 gusting 6 22.8
2017-Oct-16 14:15 141 3 gusting 6 23.3
2017-Oct-16 14:01 164 2 gusting 6 22.8
2017-Oct-16 13:45 166 1 gusting 6 23.3
2017-Oct-16 13:30 218 2 gusting 6 23.3
2017-Oct-16 13:16 167 0 gusting 6 23.3
2017-Oct-16 13:01 171 2 gusting 7 22.8
2017-Oct-16 12:45 153 3 gusting 6 22.8
2017-Oct-16 12:30 173 3 gusting 5 23.3
2017-Oct-16 12:15 151 22.8
2017-Oct-16 12:01 169 1 gusting 6 23.3
2017-Oct-16 11:45 188 4 gusting 6 23.3
2017-Oct-16 11:30 184 1 gusting 7 22.8
2017-Oct-16 11:15 182 2 gusting 6 22.8
2017-Oct-16 11:01 205 2 gusting 6 23.3
2017-Oct-16 10:46 197 0 gusting 6 23.3
2017-Oct-16 10:30 192 3 gusting 6 22.8
2017-Oct-16 10:15 197 3 gusting 6 22.8
2017-Oct-16 10:01 197 3 gusting 6 22.8
2017-Oct-16 09:46 202 0 gusting 5 22.8
2017-Oct-16 09:30 191 4 gusting 6 22.2
2017-Oct-16 09:16 198 0 gusting 5 22.2
2017-Oct-16 09:01 192 1 gusting 6 22.2
2017-Oct-16 08:46 119 22.2
2017-Oct-16 08:31 100 21.7
2017-Oct-16 08:15 014 21.7
2017-Oct-16 07:45 014 18.9
2017-Oct-16 07:30 014 18.9
2017-Oct-16 07:15 014 18.3
2017-Oct-16 07:01 014 17.8
2017-Oct-16 06:45 014 17.8
2017-Oct-16 06:30 014 17.8
2017-Oct-16 06:15 005 17.8
2017-Oct-16 06:01 009 17.8
2017-Oct-16 05:45 009 17.8
2017-Oct-16 05:30 010 17.8
2017-Oct-16 05:15 011 18.3
2017-Oct-16 05:01 360 18.3
2017-Oct-16 04:45 334 0 gusting 5 18.3
2017-Oct-16 04:30 325 4 gusting 7 18.3
2017-Oct-16 04:16 342 3 gusting 7 18.3
2017-Oct-16 04:01 325 1 gusting 5 18.3
2017-Oct-16 03:45 320 3 gusting 7 18.9
2017-Oct-16 03:31 348 3 gusting 6 18.9
2017-Oct-16 03:15 313 3 gusting 6 18.9
2017-Oct-16 03:01 322 3 gusting 6 18.9
2017-Oct-16 02:45 309 4 gusting 7 18.9
2017-Oct-16 02:31 329 18.9
2017-Oct-16 02:15 329 2 gusting 6 18.9
2017-Oct-16 02:01 306 18.9
2017-Oct-16 01:45 303 19.4
2017-Oct-16 01:30 302 19.4
2017-Oct-16 01:15 302 20.0
2017-Oct-16 01:01 302 20.0
2017-Oct-16 00:45 302 20.6
2017-Oct-16 00:30 302 20.6
2017-Oct-16 00:15 302 21.1
2017-Oct-16 00:01 302 21.7
2017-Oct-15 23:45 302 21.7
2017-Oct-15 23:30 302 21.7
2017-Oct-15 23:15 302 22.2
2017-Oct-15 23:01 302 22.2
2017-Oct-15 22:45 302 21.1
2017-Oct-15 22:30 302 21.1
2017-Oct-15 22:15 302 21.1
2017-Oct-15 22:01 302 20.6
2017-Oct-15 21:45 302 21.1
2017-Oct-15 21:31 302 20.6
2017-Oct-15 21:15 302 20.6
2017-Oct-15 21:01 302 20.6
2017-Oct-15 20:45 302 20.6
2017-Oct-15 20:30 302 20.6
2017-Oct-15 20:15 302 20.6
2017-Oct-15 20:01 299 1 gusting 5 20.6
2017-Oct-15 19:45 288 21.1
2017-Oct-15 19:30 286 21.1
2017-Oct-15 19:15 284 0 gusting 3 21.1
2017-Oct-15 19:01 284 0 gusting 4 21.1
2017-Oct-15 18:45 167 21.7
2017-Oct-15 18:30 166 22.2
2017-Oct-15 18:16 166 22.2
2017-Oct-15 18:01 166 22.8
2017-Oct-15 17:45 166 22.8
2017-Oct-15 17:30 166 22.8
2017-Oct-15 17:16 166 22.8
2017-Oct-15 17:01 166 22.8
2017-Oct-15 16:45 166 23.3
2017-Oct-15 16:30 166 0 gusting 4 23.3
2017-Oct-15 16:15 171 0 gusting 5 23.3
2017-Oct-15 16:01 171 2 gusting 5 23.3
2017-Oct-15 15:45 171 0 gusting 5 23.3
2017-Oct-15 15:31 171 0 gusting 6 23.9
2017-Oct-15 15:15 171 2 gusting 6 23.9
2017-Oct-15 15:01 167 1 gusting 6 23.9
2017-Oct-15 14:45 152 1 gusting 6 24.4
2017-Oct-15 14:30 163 1 gusting 5 24.4
2017-Oct-15 14:15 165 0 gusting 5 24.4
2017-Oct-15 14:01 163 4 gusting 6 24.4
2017-Oct-15 13:45 172 2 gusting 6 24.4
2017-Oct-15 13:30 180 1 gusting 6 23.9
2017-Oct-15 13:01 188 2 gusting 6 23.9
2017-Oct-15 12:45 188 3 gusting 6 23.9
2017-Oct-15 12:30 184 3 gusting 6 23.9
2017-Oct-15 12:15 184 4 gusting 6 23.9
2017-Oct-15 12:01 187 2 gusting 6 23.3
2017-Oct-15 11:46 192 1 gusting 6 23.9
2017-Oct-15 11:30 192 0 gusting 5 23.9
2017-Oct-15 11:15 192 0 gusting 6 23.3
2017-Oct-15 11:01 215 2 gusting 6 23.3
2017-Oct-15 10:45 215 2 gusting 5 22.8
2017-Oct-15 10:30 215 2 gusting 5 23.3
2017-Oct-15 10:15 219 0 gusting 5 23.9
2017-Oct-15 10:01 250 23.3
2017-Oct-15 09:45 267 1 gusting 3 23.9
2017-Oct-15 09:30 319 23.3
2017-Oct-15 09:15 321 0 gusting 3 22.8
2017-Oct-15 09:01 342 22.8
2017-Oct-15 08:45 343 22.8
2017-Oct-15 08:30 342 22.8
2017-Oct-15 08:15 346 23.3
2017-Oct-15 08:01 346 22.2
2017-Oct-15 07:45 346 20.6
2017-Oct-15 07:30 346 20.6
2017-Oct-15 07:15 346 19.4
2017-Oct-15 07:01 346 18.9